Tracking 19638 objects as of 21-Apr-2019
HD Live streaming from Space Station
objects crossing your sky now

ARIANE 2 DEB

Track ARIANE 2 DEB now!
10-day predictions


NORAD ID: 33584
Int'l Code: 1989-027E
Perigee: 439.7 km
Apogee: 21,991.7 km
Inclination: 5.8 °
Period: 386.8 minutes
Semi major axis: 17586 km
RCS: 0.3666 m2 (medium)
Launch date: April 2, 1989
Source: France (FR)
Launch site: FRENCH GUIANA (FRGUI)

Note: This is SATELLITE DEBRIS
aabbcc
Your satellite tracking list
Your tracking list is empty




NASA's NSSDC Master Catalog

Two Line Element Set (TLE):
1 33584U 89027E   19110.94617195 -.00000051  00000-0  38354-5 0  9998
2 33584   5.8409 198.8577 6127371  82.4209 338.9755  3.72243960263173
Source of the keplerian elements: AFSPC